Powrót do katalogu

GCOM W1

AktywnyNaukaSSO
NORAD 38337·PAYLOAD·🇯🇵 Japan

Wystrzelony May 17, 2012 z Tanegashima Space Center

Loading…

Następne Przeloty (najbliższe 24 godziny)

TLE

ŚwieżeSource: Space-Track

Epoka: Sep 14, 2026, 07:43 UTC

1 38337U 12025A   26257.32204837  .00000329  00000-0  82928-4 0  9992
2 38337  98.2066 196.5411 0001496  86.8251  74.4441 14.57133635762012

Śledź GCOM W1 w czasie rzeczywistym z AllMySat

Download on the App Store